Dumas, Arkansas, United States (71639)
Lat: 33.89N, Lon: 91.49W
Wx Zone: ARZ065
Local Info
Past Weather Observations for Wednesday, May 25, 2016

NOTE: This archive is for the closest National Weather Service station to Dumas. Information may differ from the station used for current weather conditions.

Click here for Long-term Archive

Time Weather Temperature Dewpoint Humidity Pressure Winds Precip Visibility
23:53
Clear
75°F / 24°C 70°F / 21°C 83% 30.06 in
(1018 mb)
SSE 5.8 mph
(SSE 9 kph)
- 10SM
22:53
Clear
75°F / 24°C 70°F / 21°C 83% 30.06 in
(1018 mb)
S 5.8 mph
(S 9 kph)
- 10SM
21:53
Partly Cloudy
77°F / 25°C 72°F / 22°C 83% 30.06 in
(1018 mb)
S 6.9 mph
(S 11 kph)
- 10SM
20:53
Mostly Cloudy
79°F / 26°C 72°F / 22°C 79% 30.06 in
(1018 mb)
SE 4.6 mph
(SE 7 kph)
- 10SM
19:53
Clear
79°F / 26°C 73°F / 23°C 84% 30.04 in
(1017 mb)
SE 3.5 mph
(SE 6 kph)
- 10SM
18:53
Clear
81°F / 27°C 73°F / 23°C 79% 30.01 in
(1016 mb)
S 3.5 mph
(S 6 kph)
- 10SM
17:53
Clear
84°F / 29°C 72°F / 22°C 66% 30.01 in
(1016 mb)
SSE 6.9 mph
(SSE 11 kph)
- 10SM
16:53
Clear
82°F / 28°C 73°F / 23°C 74% 30.01 in
(1016 mb)
SSE 11.5 mph
(SSE 19 kph)
- 10SM
16:17
Partly Cloudy
86°F / 30°C 73°F / 23°C 66% 30.01 in
(1016 mb)
SSE 6.9 mph
(SSE 11 kph)
- 10SM
16:02
Mostly Cloudy
Thunder Storms
84°F / 29°C 73°F / 23°C 70% 30.04 in
(1017 mb)
SSE 6.9 mph
(SSE 11 kph)
- 10SM
15:53
Overcast
Thunder Storms
82°F / 28°C 73°F / 23°C 74% 30.04 in
(1017 mb)
Calm - 10SM
15:31
Overcast
Thunder Storms
84°F / 29°C 73°F / 23°C 70% 30.06 in
(1018 mb)
S 4.6 mph
(S 7 kph)
- 10SM
15:11
Mostly Cloudy
84°F / 29°C 73°F / 23°C 70% 30.04 in
(1017 mb)
SE 6.9 mph
(SE 11 kph)
- 10SM
14:53
Mostly Cloudy
Thunder Storms
86°F / 30°C 73°F / 23°C 66% 30.04 in
(1017 mb)
SSE 6.9 mph
(SSE 11 kph)
- 10SM
13:53
Mostly Cloudy
86°F / 30°C 72°F / 22°C 62% 30.06 in
(1018 mb)
S 8.1 mph
(S 13 kph)
- 10SM
12:53
Overcast
86°F / 30°C 72°F / 22°C 62% 30.06 in
(1018 mb)
S 9.2 mph
(S 15 kph)
- 10SM
11:53
Overcast
84°F / 29°C 72°F / 22°C 66% 30.09 in
(1019 mb)
SSE 9.2 mph
(SSE 15 kph)
- 10SM
10:53
Overcast
82°F / 28°C 72°F / 22°C 70% 30.09 in
(1019 mb)
SSE 6.9 mph
(SSE 11 kph)
- 10SM
10:17
Overcast
81°F / 27°C 72°F / 22°C 74% 30.09 in
(1019 mb)
S 8.1 mph
(S 13 kph)
- 10SM
09:53
Overcast
81°F / 27°C 72°F / 22°C 74% 30.09 in
(1019 mb)
SW 6.9 mph
(SW 11 kph)
- 10SM
08:53
Mostly Cloudy
81°F / 27°C 72°F / 22°C 74% 30.09 in
(1019 mb)
Variable 6.9 mph
(Variable 11 kph)
- 10SM
08:46
Overcast
79°F / 26°C 72°F / 22°C 79% 30.09 in
(1019 mb)
S 9.2 mph
(S 15 kph)
- 10SM
07:53
Mostly Cloudy
77°F / 25°C 72°F / 22°C 83% 30.09 in
(1019 mb)
S 6.9 mph
(S 11 kph)
- 10SM
06:53
Clear
72°F / 22°C 66°F / 19°C 83% 30.09 in
(1019 mb)
S 3.5 mph
(S 6 kph)
- 10SM
06:17
Partly Cloudy
70°F / 21°C 66°F / 19°C 88% 30.09 in
(1019 mb)
SE 3.5 mph
(SE 6 kph)
- 10SM
06:08
Mostly Cloudy
70°F / 21°C 66°F / 19°C 88% 30.09 in
(1019 mb)
Calm - 10SM
05:53
Partly Cloudy
70°F / 21°C 64°F / 18°C 83% 30.09 in
(1019 mb)
Calm - 10SM
04:53
Clear
70°F / 21°C 64°F / 18°C 83% 30.06 in
(1018 mb)
Calm - 10SM
03:53
Clear
70°F / 21°C 64°F / 18°C 83% 30.04 in
(1017 mb)
SSE 3.5 mph
(SSE 6 kph)
- 10SM
02:53
Clear
70°F / 21°C 64°F / 18°C 83% 30.04 in
(1017 mb)
E 3.5 mph
(E 6 kph)
- 10SM
01:53
Clear
70°F / 21°C 64°F / 18°C 83% 30.04 in
(1017 mb)
S 4.6 mph
(S 7 kph)
- 10SM
00:53
Mostly Cloudy
68°F / 20°C 64°F / 18°C 88% 30.06 in
(1018 mb)
SE 5.8 mph
(SE 9 kph)
- 10SM
Time Weather Temperature Dewpoint Humidity Pressure Winds Precip Visibility


Weather for websites

WeatherForYou.com, LLC is not responsible for any damages or problems caused by this service. Current weather conditions are obtained from the closest station including government and personal stations which may have varying degrees of accuracy. Weather forecasts are derived from the NOAA NDFD. Like all things, this site belongs to Jesus Christ... He just trusts us to maintain it. If you have any questions or comments email webmaster@weatherforyou.com

Copyright © 2016, WeatherForYou.com LLC. All rights reserved.